星链-32516 (STARLINK-32516)

导读

STARLINK-32516是美国太空探索技术公司SpaceX星链(Starlink)星座的成员卫星,于2024年11月30日由美国发射升空。星链项目旨在搭建低轨卫星互联网星座,为全球偏远、网络欠发达地区提供低延迟、高速率的宽带互联服务,该卫星服役后将进一步扩充星链星座的网络覆盖与服务容量。

基本信息
目录编号:
62176
目录名称:
STARLINK-32516
国际标识:
2024-225P
轨道中心:
EARTH
卫星名称:
星链-32516
卫星全名:
星链-32516 (STARLINK-32516)
卫星状态:
在轨 (已飞行653 天)
发射日期:
2024-11-30 UTC
国别 :
美国 (US)
星等 :
--
该卫星已列入 空间交会检测服务 Space Conjunction Data Service (SCDS) ,当前飞行风险评估等级: 无高风险
轨道信息
数据来源 国际轨道数据
星历时间: 2026-09-14T03:51:46+0800
12小时前
查看轨道信息
半长轴: 6950.17km
偏心率: 0.0003069
轨道倾角: 70.002°
近地点辐角 263.844°
升交点赤经 50.194°
平近点角 96.237°
近地点: 569.899km
远地点: 574.167km
周期: 96.107分钟
每日圈数: 14.983375
详细信息
固有亮度:
5
最大亮度:
2.5
卫星平台:
Starlink V1.0
覆盖范围:
全球
运营商:
太空探索技术公司
运营商所在国:
美国
制造商(研发单位):
太空探索技术公司
制造商所在国:
美国
使用方式:
暂无
卫星简介
Starlink 计划是 SpaceX 推出的全球卫星互联网项目,通过发射低轨道卫星,为全球尤其是偏远地区提供高速、低延迟的互联网服务。自 2019 年起,Starlink 已部署数千颗卫星,旨在缩小全球数字鸿沟,推动互联网普及。该项目还为军事、航空等行业提供通信支持,带来广泛经济效益。
2D轨道图
3D轨道图
轨道高度分析图
轨道倾角分析图
轨道综合分析图
查看轨道综合分析图
交会数据列表
事件ID 空间交会对象 最接近时刻(TCA) 交会距离 交会风险概率(CRP) 交会风险指数(CRI) 操作
CDM_260916-154405-945206-217621
KORSAT-1 (59452)
2026-09-16T
15:44:40+0000
1.982 km
极远距离
2.163609E-6 低风险 0.42
与全量物体交会距离演化趋势 订阅飞行安全评估服务
与全量物体交会风险概率演化趋势 订阅飞行安全评估服务